Torna al catalogo

STARLINK-37760

AttivoComunicazioniSSO
NORAD 69222·PAYLOAD·🇺🇸 United States

Lanciato May 26, 2026 da Vandenberg Space Force Base

Loading…

Prossimi Passaggi (prossime 24 ore)

TLE

AggiornatoSource: CelesTrak SupGP

Epoca: Sep 14, 2026, 14:49 UTC

1 69222C 26115M   26257.61784722 -.00037110  00000+0 -11520-2 0  2576
2 69222  97.2835 273.7980 0001527 100.8004  89.9552 15.33458022    13

Traccia STARLINK-37760 in tempo reale con AllMySat

Download on the App Store